Temp
3 3 3 3 3 3 3 3 3 3 3 3 3 3 3 3 3 3 3 3 2 2 3 3 3 3 2 2 2 1 1 1 1 1 1 1 1 1 1 1 1 1
3 3 3 3 3 3 3 3 3 3 3 3 3 3 3 3 2 2 3 3 2 2 2 3 3 2 2 2 1 1 1 1 1 1 1 1 1 1 1 1 1 1
3 3 3 3 3 3 3 3 3 2 2 2 3 3 3 3 2 2 2 2 2 2 2 3 3 2 2 1 1 1 1 1 1 1 1 1 1 1 1 1 1 1
2 2 2 2 3 3 2 2 2 2 2 2 2 3 3 3 2 2 2 2 2 2 2 3 3 2 2 1 1 1 1 1 1 1 1 1 1 1 1 1 1 1
2 2 2 2 2 2 2 2 2 2 2 2 2 2 3 2 2 2 2 2 2 2 2 3 3 3 2 2 1 1 1 1 1 1 1 1 1 1 1 1 1 1
2 3 3 2 2 2 2 2 2 2 2 2 2 3 3 3 2 2 2 2 2 2 2 3 3 3 2 2 2 2 1 1 1 1 1 2 2 2 2 2 1 1
2 3 2 2 2 2 2 2 2 2 2 2 3 3 3 3 3 3 2 2 2 2 3 3 3 3 3 2 2 2 2 1 1 1 2 2 2 2 2 2 2 1
2 2 2 2 2 2 2 2 2 2 2 2 3 3 3 3 3 3 3 2 2 2 3 3 3 3 3 3 2 2 2 2 2 2 2 2 2 1 1 1 2 2
2 2 2 2 2 2 2 2 2 2 2 3 3 3 3 3 3 3 3 2 2 3 3 3 3 3 3 3 3 2 2 2 2 2 2 1 1 1 1 1 2 2
2 1 1 1 2 2 2 2 2 2 2 2 3 3 3 3 3 2 2 2 3 3 3 3 3 3 3 3 3 2 2 2 2 2 2 2 1 1 1 1 1 1
1 1 1 1 1 1 2 2 2 2 2 2 2 2 2 2 2 2 2 2 2 2 2 2 2 3 3 2 2 2 2 2 2 2 2 1 1 1 1 1 1 1
1 1 1 1 1 1 1 1 2 2 2 2 2 2 2 2 2 2 2 2 2 2 2 2 2 2 2 2 2 2 2 2 2 2 1 1 1 1 1 1 0 0
1 1 1 1 1 1 1 1 1 2 2 2 2 2 2 2 2 2 2 2 2 2 2 2 2 2 2 2 2 2 2 2 2 1 1 1 1 1 0 0 0 0
1 1 1 0 0 1 1 1 1 1 2 2 2 2 2 2 2 2 2 2 2 2 2 2 2 2 2 2 2 1 1 1 1 1 1 1 1 0 0 0 0 -0
0 1 0 -0 -0 0 0 0 1 1 1 2 2 2 2 2 2 2 2 2 2 2 2 2 2 1 1 1 1 1 1 1 1 1 1 0 0 0 0 0 -0 -0
-0 0 0 -0 -0 -0 0 0 1 1 1 1 2 2 2 2 2 2 2 2 2 1 1 1 1 1 1 1 1 1 1 1 1 0 0 0 0 0 -0 -0 -0 -0
-0 0 0 0 -0 0 0 1 1 1 1 1 2 2 2 2 2 2 1 1 1 1 1 1 1 1 1 1 1 1 0 0 0 0 -0 -0 -0 -0 -0 -0 -0 -0
0 0 0 0 0 0 1 1 1 1 1 1 1 2 2 2 2 2 1 1 1 1 1 1 1 1 1 0 0 0 0 0 0 -0 -0 -0 -0 -0 -1 -1 -1 -1
1 1 1 0 0 1 1 0 0 1 0 1 1 1 1 1 1 1 2 1 1 1 1 1 1 0 0 0 0 0 -0 -0 -0 -0 -0 -0 -1 -1 -1 -1 -1 -1
1 1 1 1 1 1 1 0 0 1 1 1 1 1 1 1 1 1 1 1 1 1 1 1 1 1 0 0 0 0 -0 -0 -0 -1 -1 -1 -1 -1 -1 -1 -1 -1
0 0 0 1 1 1 0 0 -0 0 1 1 1 1 1 1 1 1 1 1 1 1 1 1 1 0 0 0 0 -0 -0 -0 -1 -1 -1 -1 -1 -1 -1 -1 -1 -1
0 0 0 0 0 0 0 0 -0 0 0 0 1 0 0 0 0 0 0 0 0 0 0 0 0 0 0 0 0 -0 -0 -0 -0 -0 -1 -1 -1 -1 -1 -1 -1 -1
-0 -0 -0 -0 -0 0 0 0 -0 -0 -0 -0 -0 -0 -0 -0 -0 -0 -0 -0 -0 -0 -0 -0 -0 -0 -0 -0 -0 0 0 0 0 -0 -0 -0 -0 -1 -1 -1 -1 -1
-1 -1 -1 -1 -1 -0 -0 -0 -0 -1 -1 -1 -1 -1 -0 -0 -0 -0 -0 -0 -0 -0 -0 -0 -1 -1 -1 -1 -1 -0 -0 0 0 0 0 0 0 -0 -0 -0 -0 -0
-1 -1 -1 -1 -1 -1 -1 -1 -1 -1 -1 -1 -1 -1 -1 -1 -0 -0 -0 -0 -0 -0 -0 -0 -1 -1 -1 -1 -1 -1 -1 -1 -0 -0 -0 -0 -0 0 -0 -0 -1 -1
-1 -1 -1 -1 -1 -1 -1 -1 -1 -1 -1 -1 -1 -1 -1 -1 -1 -1 -1 -1 -1 -1 -1 -1 -1 -1 -1 -1 -1 -1 -1 -1 -1 -1 -1 -1 -1 -1 -1 -1 -1 -1
Height
3138 3139 3140 3141 3142 3142 3143 3143 3143 3143 3144 3143 3143 3143 3143 3143 3142 3142 3142 3142 3142 3142 3142 3141 3141 3141 3142 3143 3144 3145 3146 3146 3146 3147 3147 3148 3148 3148 3149 3150 3151 3152
3137 3138 3139 3140 3141 3142 3143 3143 3143 3143 3143 3143 3142 3142 3141 3141 3141 3141 3141 3141 3141 3142 3141 3141 3141 3141 3142 3143 3143 3144 3145 3145 3146 3146 3146 3147 3147 3147 3148 3149 3150 3151
3137 3138 3139 3140 3141 3141 3142 3143 3143 3142 3142 3142 3141 3140 3140 3140 3140 3140 3140 3140 3140 3141 3141 3141 3141 3141 3142 3142 3143 3144 3145 3145 3146 3146 3146 3146 3146 3147 3147 3148 3149 3150
3136 3137 3138 3139 3140 3141 3141 3142 3142 3141 3141 3141 3140 3140 3139 3139 3139 3139 3139 3140 3140 3140 3140 3141 3141 3141 3142 3142 3143 3144 3145 3145 3146 3146 3146 3146 3146 3147 3147 3148 3149 3150
3135 3136 3137 3138 3139 3140 3140 3141 3141 3141 3141 3140 3140 3139 3139 3139 3138 3139 3139 3139 3139 3139 3140 3140 3141 3141 3142 3142 3143 3144 3144 3145 3146 3146 3146 3146 3146 3147 3147 3148 3150 3151
3133 3134 3135 3136 3137 3138 3139 3140 3140 3140 3140 3140 3139 3139 3138 3138 3138 3138 3138 3138 3139 3139 3139 3140 3140 3141 3141 3142 3143 3144 3144 3145 3146 3146 3146 3146 3146 3147 3147 3148 3150 3151
3131 3132 3134 3135 3136 3137 3138 3139 3139 3139 3139 3139 3139 3138 3138 3137 3137 3137 3137 3137 3138 3138 3139 3139 3140 3140 3141 3141 3142 3143 3144 3145 3145 3145 3146 3146 3146 3146 3147 3148 3149 3150
3129 3131 3133 3134 3135 3136 3137 3137 3138 3138 3138 3138 3138 3138 3137 3137 3137 3137 3137 3137 3137 3138 3138 3139 3140 3140 3140 3141 3142 3143 3143 3144 3144 3145 3145 3145 3146 3146 3147 3148 3149 3150
3127 3129 3131 3132 3133 3134 3135 3135 3136 3136 3136 3136 3136 3137 3136 3136 3136 3136 3136 3136 3137 3137 3138 3139 3140 3140 3140 3141 3141 3142 3143 3143 3144 3144 3145 3145 3146 3147 3147 3148 3149 3150
3126 3128 3128 3129 3131 3131 3132 3133 3133 3133 3133 3134 3135 3135 3135 3135 3135 3135 3135 3135 3136 3137 3138 3139 3139 3140 3140 3141 3141 3142 3142 3143 3144 3144 3145 3146 3146 3147 3148 3149 3150 3151
3125 3125 3126 3127 3128 3129 3129 3130 3130 3131 3131 3132 3133 3133 3133 3134 3133 3133 3134 3135 3136 3137 3138 3138 3139 3140 3140 3141 3141 3142 3143 3143 3144 3144 3145 3146 3146 3147 3148 3149 3150 3151
3121 3122 3123 3125 3126 3127 3128 3129 3129 3129 3130 3131 3131 3132 3132 3133 3132 3132 3133 3134 3136 3137 3138 3138 3139 3140 3140 3141 3142 3142 3143 3144 3144 3144 3145 3146 3146 3147 3148 3149 3150 3151
3119 3120 3122 3123 3124 3126 3127 3127 3128 3129 3129 3130 3131 3131 3132 3132 3132 3132 3133 3134 3136 3137 3138 3139 3139 3140 3140 3141 3142 3143 3143 3144 3144 3145 3145 3146 3147 3147 3148 3149 3150 3151
3117 3118 3119 3121 3122 3123 3124 3125 3127 3128 3129 3129 3130 3130 3131 3131 3131 3131 3133 3134 3136 3137 3138 3139 3139 3140 3141 3141 3142 3143 3144 3144 3145 3145 3146 3147 3147 3148 3149 3149 3150 3151
3114 3115 3117 3118 3120 3121 3122 3123 3125 3126 3127 3128 3129 3129 3130 3130 3131 3131 3132 3134 3135 3136 3137 3138 3139 3140 3140 3141 3142 3143 3144 3144 3145 3146 3147 3147 3148 3148 3149 3149 3150 3150
3112 3114 3115 3116 3117 3119 3120 3122 3123 3124 3126 3127 3128 3128 3129 3130 3130 3131 3132 3133 3134 3135 3136 3137 3138 3139 3140 3140 3141 3142 3143 3144 3145 3145 3146 3147 3147 3148 3148 3149 3149 3150
3111 3112 3113 3114 3115 3117 3119 3120 3122 3123 3124 3126 3127 3127 3128 3129 3130 3130 3131 3132 3133 3134 3135 3136 3137 3137 3138 3139 3140 3141 3141 3142 3143 3144 3144 3145 3146 3146 3147 3147 3148 3148
3110 3110 3111 3112 3114 3115 3117 3119 3120 3122 3123 3124 3125 3126 3126 3127 3128 3129 3130 3131 3131 3132 3133 3134 3135 3136 3136 3137 3138 3139 3139 3140 3141 3141 3142 3143 3143 3144 3144 3145 3145 3145
3108 3109 3110 3111 3112 3113 3115 3117 3119 3120 3122 3123 3123 3123 3124 3125 3126 3128 3129 3130 3131 3132 3132 3133 3134 3134 3134 3135 3136 3137 3137 3137 3138 3139 3139 3140 3140 3141 3141 3142 3142 3142
3106 3107 3108 3109 3110 3111 3113 3115 3117 3118 3120 3121 3122 3122 3122 3124 3125 3126 3128 3129 3130 3130 3131 3131 3132 3132 3132 3133 3134 3134 3134 3134 3135 3135 3136 3136 3137 3137 3138 3138 3138 3139
3103 3104 3105 3106 3108 3109 3111 3113 3114 3116 3118 3119 3120 3120 3121 3122 3123 3125 3126 3126 3127 3128 3129 3129 3129 3130 3130 3131 3131 3131 3132 3132 3132 3132 3132 3133 3133 3134 3134 3135 3135 3135
3102 3103 3103 3104 3106 3107 3109 3110 3112 3114 3116 3117 3118 3118 3119 3120 3121 3122 3123 3124 3125 3126 3127 3127 3126 3126 3127 3127 3127 3128 3128 3128 3128 3128 3129 3129 3130 3130 3131 3131 3132 3132
3101 3102 3103 3104 3105 3106 3107 3108 3110 3111 3113 3114 3115 3116 3117 3118 3118 3119 3120 3121 3122 3122 3123 3124 3124 3123 3123 3124 3124 3123 3123 3124 3124 3124 3125 3125 3126 3127 3128 3128 3128 3129
3100 3101 3102 3102 3103 3104 3105 3106 3107 3108 3110 3111 3112 3113 3114 3115 3116 3116 3117 3118 3118 3119 3119 3120 3121 3121 3121 3121 3121 3121 3120 3121 3121 3121 3121 3122 3122 3123 3123 3124 3124 3125
3100 3100 3100 3100 3101 3101 3102 3103 3104 3105 3107 3108 3109 3110 3111 3112 3113 3113 3114 3114 3115 3115 3116 3117 3117 3117 3117 3118 3118 3118 3118 3118 3118 3118 3118 3119 3119 3119 3119 3119 3119 3119
3099 3099 3099 3100 3100 3100 3101 3100 3101 3102 3103 3105 3106 3107 3108 3109 3109 3110 3110 3110 3111 3111 3112 3113 3114 3114 3114 3114 3114 3114 3114 3114 3115 3114 3115 3115 3115 3115 3115 3114 3114 3114
Wind_Speed
19 17 15 13 12 11 10 8 7 7 8 9 9 9 8 7 7 8 7 6 6 6 7 7 6 6 7 8 9 9 9 9 9 8 8 8 8 9 9 9 8 8
19 17 16 15 14 13 11 9 8 8 9 9 10 9 8 7 7 7 7 7 7 6 6 7 7 7 8 8 9 9 10 9 7 7 7 6 6 7 7 8 7 6
19 18 17 16 15 13 11 9 9 9 9 9 9 8 6 6 6 7 7 7 8 7 7 7 8 8 9 10 10 10 10 9 7 7 6 6 6 6 7 7 7 6
20 19 18 17 16 14 11 10 9 9 8 8 8 7 6 6 6 7 7 8 8 8 8 8 8 9 11 11 10 10 10 8 7 7 7 7 7 7 7 7 6 6
22 22 20 18 17 15 13 10 8 8 8 9 9 8 8 7 7 8 8 9 9 8 8 9 8 9 10 10 10 10 8 7 7 8 8 9 8 8 7 7 7 7
25 23 21 20 19 17 14 10 9 8 8 9 10 9 9 9 8 9 9 10 9 8 9 9 9 8 8 9 9 9 8 7 7 8 8 8 8 7 7 7 7 7
27 25 22 21 20 17 13 10 9 9 9 10 10 9 9 10 10 9 10 10 10 10 10 10 9 9 8 8 8 8 8 8 8 7 7 6 6 5 4 4 4 5
28 25 23 22 20 16 13 12 10 9 10 10 10 9 9 10 10 10 10 10 11 11 11 10 10 9 9 9 8 8 8 8 7 7 6 5 5 4 3 2 2 3
30 26 23 22 20 17 14 12 11 10 10 10 10 9 10 11 10 10 10 11 13 12 12 11 11 11 11 10 10 10 10 9 8 8 7 6 5 5 4 3 2 3
30 26 25 23 21 18 15 13 11 11 11 11 10 10 11 11 11 11 10 13 14 13 12 12 12 12 12 12 12 12 12 11 10 10 9 8 7 7 6 5 4 4
31 29 28 26 23 20 17 15 13 13 12 12 11 11 11 11 11 11 12 15 15 13 13 12 12 13 12 12 13 12 12 12 12 11 11 11 10 9 8 7 6 5
33 31 29 26 24 22 19 17 14 14 14 13 12 12 10 10 10 10 14 17 14 13 13 12 13 13 13 13 12 12 12 12 12 12 12 12 12 11 9 8 7 6
31 27 25 25 25 23 21 17 14 14 15 14 12 11 10 9 8 11 16 16 14 13 13 12 13 13 13 12 11 11 11 11 11 11 11 11 11 10 9 9 8 7
24 22 21 22 23 22 20 17 14 14 15 14 12 11 10 9 10 13 16 15 14 14 13 13 13 12 12 11 10 10 10 9 10 10 10 10 9 9 9 9 9 8
21 21 20 20 19 18 19 18 16 15 15 14 13 13 12 12 12 14 16 15 15 14 14 13 13 13 13 12 11 11 11 10 10 11 11 11 10 10 10 10 9 9
21 20 19 18 17 18 19 18 17 17 16 15 15 14 13 14 14 15 16 15 15 15 14 14 13 14 14 14 14 14 14 14 13 13 13 13 13 13 12 12 12 12
20 19 18 17 18 21 21 19 18 17 16 17 16 15 14 15 16 16 16 15 16 16 15 15 14 15 16 16 17 17 17 17 17 17 16 16 16 16 15 15 15 15
15 16 16 17 19 21 22 21 19 17 17 18 17 16 15 16 16 17 17 17 17 17 17 17 17 17 17 18 18 18 19 19 20 20 20 20 19 19 19 19 19 19
9 11 14 17 18 21 21 20 19 19 18 18 17 16 16 16 16 17 17 17 18 18 18 18 18 19 20 20 21 21 22 22 23 23 23 23 23 23 23 23 23 23
9 11 14 16 18 20 20 18 18 19 20 19 18 17 16 16 16 16 16 17 18 19 20 20 20 21 22 22 23 24 25 26 26 26 26 26 27 27 27 27 27 28
12 13 16 18 19 20 21 21 21 21 21 21 20 19 18 18 17 17 17 18 19 19 19 19 20 22 23 24 25 26 27 28 28 28 29 29 29 29 29 29 29 30
14 16 18 19 19 20 22 23 23 23 22 23 22 21 20 19 18 19 19 20 20 20 19 20 22 23 24 25 26 28 28 29 30 30 31 31 31 30 30 30 30 31
16 18 19 19 20 22 23 24 24 24 23 22 22 21 20 20 21 22 22 22 22 22 22 22 23 24 25 25 27 28 29 29 29 30 31 31 31 30 30 30 30 29
18 19 20 21 23 24 25 26 25 25 24 23 23 23 23 23 24 25 24 23 23 23 23 23 23 24 25 26 27 28 29 29 29 29 30 30 30 29 29 30 30 30
19 20 22 23 25 27 28 28 28 26 25 25 25 25 26 26 26 26 26 25 25 25 25 24 25 26 26 27 28 29 30 30 30 31 31 31 31 32 32 33 33 34
23 23 23 22 21 21 23 25 27 27 27 27 27 26 26 26 26 26 26 25 25 26 26 26 27 28 28 29 30 31 32 33 33 34 34 33 33 34 35 36 37 37
Wind_Direction
188 193 194 198 207 214 219 231 253 274 286 289 289 289 283 276 268 263 261 255 256 263 261 252 234 214 202 194 197 203 204 208 217 222 220 220 226 230 230 228 230 234
193 197 197 202 210 215 223 238 260 278 286 290 293 293 285 277 269 265 264 262 262 263 257 245 226 211 205 199 201 204 206 209 213 218 217 209 209 214 216 213 208 209
198 201 201 206 212 216 228 246 268 281 285 291 295 293 284 278 275 270 263 261 262 262 258 244 219 205 204 204 204 206 209 211 210 213 213 205 203 202 200 196 186 180
204 205 204 210 216 221 234 253 275 283 283 291 293 288 282 279 275 270 262 260 259 255 252 243 220 204 199 199 202 207 209 212 209 206 203 200 202 201 193 184 177 176
209 209 210 217 221 226 238 258 277 277 278 288 289 285 282 276 270 265 259 258 255 245 241 238 222 205 199 196 199 203 205 207 206 201 197 196 200 201 193 182 176 177
211 213 217 221 223 228 238 258 275 270 273 283 283 280 278 275 271 262 255 253 244 230 229 230 218 203 199 196 194 195 196 198 198 194 192 193 195 197 189 175 168 169
213 217 221 223 225 229 240 262 271 264 269 275 274 272 270 273 272 264 255 243 224 213 218 219 209 197 193 190 185 183 186 189 188 185 185 187 188 189 184 171 156 153
214 217 218 222 226 231 247 265 263 257 264 268 266 264 265 269 270 267 258 234 207 202 208 207 196 188 186 183 176 171 173 177 178 175 174 180 183 180 185 188 153 141
212 213 213 217 225 233 247 259 254 250 256 259 258 257 262 266 266 266 254 221 198 196 199 196 188 182 181 178 172 168 169 171 172 170 168 171 174 173 184 195 169 142
212 209 210 214 220 228 239 246 242 242 246 247 246 250 258 260 261 261 239 205 193 191 189 187 183 179 179 176 171 171 172 171 170 170 165 162 160 159 167 173 159 143
214 212 211 213 218 224 231 233 230 231 234 235 238 245 253 255 258 251 215 192 187 185 182 182 179 177 177 176 174 174 175 174 171 168 164 158 152 151 154 156 153 148
214 214 213 213 219 227 233 232 228 228 225 222 231 242 247 250 252 228 194 184 182 182 183 182 177 176 178 178 176 175 177 177 171 168 165 157 151 151 155 159 163 167
214 217 216 216 222 230 233 231 230 231 225 218 226 238 240 239 229 197 182 181 181 182 187 185 179 179 180 180 177 174 179 182 174 169 166 160 158 162 168 174 182 189
211 217 219 224 231 230 223 221 224 228 229 224 224 231 228 217 200 184 181 182 182 186 193 190 183 182 184 184 182 177 182 188 182 176 174 174 177 182 187 193 198 203
205 212 217 225 230 218 209 213 216 219 227 227 224 226 221 205 193 187 186 187 187 193 200 198 190 188 188 190 191 189 190 194 194 191 191 194 199 204 208 212 215 220
196 201 206 212 210 202 203 210 209 211 221 224 221 223 218 206 197 192 190 192 196 198 203 206 202 198 196 196 198 200 200 202 203 205 207 210 215 220 225 229 233 238
185 192 199 203 204 203 206 208 205 210 220 222 219 217 215 209 203 198 196 199 203 204 206 210 211 210 208 206 205 207 208 210 212 215 218 220 224 229 234 238 242 247
189 201 205 206 207 209 213 210 205 210 221 220 215 212 211 209 208 206 204 206 208 210 211 214 217 218 219 218 217 217 218 219 221 223 226 229 232 235 238 242 245 248
208 218 215 210 207 212 218 213 202 205 216 216 212 212 213 213 214 214 214 214 215 216 218 220 221 223 226 227 228 228 228 229 230 231 233 235 237 240 243 245 247 249
229 232 224 219 217 218 218 209 199 202 211 212 211 214 218 220 220 220 221 223 223 223 224 225 227 230 232 233 233 233 233 234 234 235 236 237 239 241 243 245 247 248
222 228 222 220 224 224 218 212 209 212 216 217 219 224 228 229 228 226 227 229 228 226 225 226 230 233 235 235 236 236 236 237 238 239 239 239 240 241 243 245 247 250
224 226 221 216 217 220 221 221 223 222 222 222 224 231 238 239 238 238 238 238 237 235 233 229 229 231 233 234 235 236 237 239 240 242 243 244 245 246 247 249 251 253
229 229 226 220 217 219 223 227 229 229 228 227 228 233 237 239 240 242 242 242 243 242 241 239 237 239 241 240 237 237 237 238 240 242 245 246 248 249 250 251 253 255
226 227 227 224 222 223 224 225 227 228 227 228 229 232 235 237 241 243 244 245 245 245 244 244 244 247 250 249 246 245 245 243 243 244 245 246 246 247 249 251 253 256
227 226 226 224 221 222 222 221 222 226 227 227 229 231 234 238 242 245 247 247 247 248 249 247 246 248 251 251 249 249 250 250 249 250 252 252 251 251 252 254 256 258
236 236 239 241 238 236 234 227 222 223 226 229 232 235 239 242 245 248 250 251 252 253 254 253 252 252 252 251 250 250 251 253 254 255 257 258 259 259 259 260 260 261